Location: Chacón
(10.5789°N, 66.9317°W)
Time: 13:01:14
(UTC+00:00)

Cosmos 962 Rocket - Pass Details

Date: 19 October 2025
Orbit: 950 x 998 km, 82.9° (Epoch: 16 November)

Event Time Altitude Azimuth Distance (km) Brightness Sun altitude
Rises 08:24:24 0° 357° (N) 3,685 7.4 -28.2°
Reaches altitude 10° 08:26:56 10° 358° (N) 2,730 6.8 -27.6°
Maximum altitude 08:33:12 84° 87° (E) 982 4.4 -26.1°
Drops below altitude 10° 08:39:23 10° 175° (S) 2,697 6.9 -24.5°
Sets 08:41:52 0° 175° (S) 3,637 7.6 -23.9°
